Weather History for KTZR - December, 2011

Change the Weather History Date:

Saturday, December 10, 2011

  Actual Average Record
Temperature  
Mean Temperature 22 °F -  
Max Temperature 29 °F 41 °F 54 °F (2012)
Min Temperature 17 °F 29 °F 11 °F (2013)
Degree Days  
Heating Degree Days 42    
Moisture  
Dew Point 16 °F    
Average Humidity 78    
Maximum Humidity 91    
Minimum Humidity 55    
Precipitation  
Precipitation 0.00 in - - ()
Sea Level Pressure  
Sea Level Pressure 30.46 in    
Wind  
Wind Speed 6 mph (West)    
Max Wind Speed 12 mph    
Max Gust Speed 17 mph    
Visibility 10 miles    
Events      
Averages and records for this station are not official NWS values.
T = Trace of Precipitation, MM = Missing Value Source: NWS Daily Summary

Daily Weather History Graph

Daily Weather History Graph

Search for Another Location

Airport or City:

Trip Planner

Search our weather history database for the weather conditions in past years. The results will help you decide how hot, cold, wet, or windy it might be!

Date:

Astronomy

Dec. 10, 2011 Rise Set
Actual Time 7:42 AM EST 5:07 PM EST
Civil Twilight 7:12 AM EST 5:37 PM EST
Nautical Twilight 6:38 AM EST 6:11 PM EST
Astronomical Twilight 6:05 AM EST 6:44 PM EST
Moon 5:20 PM EST (12/10) 7:42 AM EST (12/10)
Length of Visible Light 10h 25m
Length of Day
9h 24m
Full, 100% of the Moon is Illuminated
Dec 10
Full
Dec 17
Last Quarter
Dec 24
New
Jan 1
First Quarter
Jan 9
Full

Hourly Weather History & Observations

Time (EST) Temp. Windchill Dew Point Humidity Pressure Visibility Wind Dir Wind Speed Gust Speed Precip Events Conditions
12:15 AM 27.5 °F 17.4 °F 21.6 °F 78% 30.37 in 10.0 mi WNW 11.5 mph 17.3 mph N/A   Scattered Clouds
12:35 AM 26.8 °F 18.5 °F 21.2 °F 79% 30.37 in 10.0 mi WNW 8.1 mph - N/A   Clear
12:55 AM 26.2 °F 17.8 °F 21.4 °F 82% 30.37 in 10.0 mi WNW 8.1 mph - N/A   Clear
1:15 AM 25.7 °F 17.1 °F 20.3 °F 80% 30.37 in 10.0 mi WNW 8.1 mph - N/A   Clear
1:35 AM 24.8 °F 19.1 °F 20.3 °F 83% 30.37 in 10.0 mi WNW 4.6 mph - N/A   Clear
1:55 AM 24.8 °F 16.1 °F 20.1 °F 82% 30.37 in 10.0 mi WNW 8.1 mph - N/A   Clear
2:15 AM 24.6 °F 16.7 °F 19.0 °F 79% 30.38 in 10.0 mi WNW 6.9 mph - N/A   Clear
2:35 AM 24.3 °F 18.4 °F 18.9 °F 80% 30.39 in 10.0 mi West 4.6 mph - N/A   Clear
2:55 AM 23.7 °F 17.8 °F 19.4 °F 84% 30.40 in 10.0 mi WNW 4.6 mph - N/A   Clear
3:15 AM 23.0 °F 17.0 °F 18.9 °F 84% 30.40 in 10.0 mi WNW 4.6 mph - N/A   Clear
3:35 AM 23.0 °F 14.7 °F 18.0 °F 81% 30.40 in 10.0 mi WNW 6.9 mph - N/A   Clear
3:55 AM 22.6 °F 15.3 °F 16.9 °F 79% 30.40 in 10.0 mi WNW 5.8 mph - N/A   Clear
4:15 AM 22.3 °F 14.9 °F 16.7 °F 79% 30.41 in 10.0 mi WNW 5.8 mph - N/A   Clear
4:35 AM 22.1 °F 13.7 °F 16.5 °F 79% 30.41 in 10.0 mi WNW 6.9 mph - N/A   Clear
4:55 AM 21.7 °F 15.5 °F 15.8 °F 78% 30.42 in 10.0 mi WNW 4.6 mph - N/A   Clear
5:15 AM 21.2 °F - 15.8 °F 80% 30.43 in 10.0 mi Calm Calm - N/A   Clear
5:35 AM 20.8 °F - 15.8 °F 81% 30.43 in 10.0 mi Calm Calm - N/A   Clear
5:55 AM 19.6 °F - 16.0 °F 86% 30.44 in 10.0 mi Calm Calm - N/A   Clear
6:15 AM 19.9 °F 14.9 °F 15.8 °F 84% 30.44 in 10.0 mi West 3.5 mph - N/A   Clear
6:35 AM 18.7 °F 13.5 °F 14.9 °F 85% 30.44 in 10.0 mi West 3.5 mph - N/A   Clear
6:55 AM 19.2 °F 14.1 °F 14.4 °F 81% 30.45 in 10.0 mi West 3.5 mph - N/A   Clear
7:15 AM 19.0 °F 13.9 °F 14.4 °F 82% 30.46 in 10.0 mi West 3.5 mph - N/A   Clear
7:50 AM 19.4 °F 12.8 °F 12.2 °F 74% 30.47 in 10.0 mi West 4.6 mph - N/A   Clear
8:50 AM 21.2 °F 13.6 °F 14.0 °F 74% 30.48 in 10.0 mi West 5.8 mph - N/A   Clear
9:50 AM 23.0 °F 14.7 °F 15.8 °F 74% 30.50 in 10.0 mi WNW 6.9 mph - N/A   Clear
10:50 AM 24.8 °F 17.9 °F 15.8 °F 69% 30.52 in 10.0 mi West 5.8 mph - N/A   Clear
12:55 PM 28.4 °F 24.6 °F 14.0 °F 55% 30.49 in 10.0 mi West 3.5 mph - N/A   Scattered Clouds
1:50 PM 28.4 °F 23.3 °F 14.0 °F 55% 30.49 in 10.0 mi NW 4.6 mph - N/A   Clear
2:47 PM 28.4 °F 23.3 °F 14.0 °F 55% 30.48 in 10.0 mi West 4.6 mph - N/A   Clear
3:47 PM 28.4 °F 21.2 °F 14.0 °F 55% 30.48 in 10.0 mi WSW 6.9 mph - N/A   Clear
4:47 PM 26.6 °F 22.6 °F 14.0 °F 59% 30.48 in 10.0 mi WSW 3.5 mph - N/A   Clear
5:55 PM 24.8 °F 20.5 °F 14.0 °F 64% 30.49 in 10.0 mi SSW 3.5 mph - N/A   Unknown
6:50 PM 23.0 °F 18.4 °F 12.2 °F 63% 30.49 in 10.0 mi SSW 3.5 mph - N/A   Clear
8:15 PM 20.5 °F - 14.4 °F 77% 30.51 in 10.0 mi Calm Calm - N/A   Clear
8:35 PM 20.8 °F - 14.9 °F 78% 30.51 in 10.0 mi Calm Calm - N/A   Clear
8:55 PM 20.7 °F - 14.4 °F 77% 30.51 in 10.0 mi Calm Calm - N/A   Clear
9:15 PM 19.8 °F - 14.2 °F 79% 30.51 in 10.0 mi Calm Calm - N/A   Clear
9:35 PM 19.9 °F - 14.5 °F 80% 30.52 in 10.0 mi Calm Calm - N/A   Clear
9:55 PM 17.6 °F - 14.5 °F 88% 30.52 in 10.0 mi Calm Calm - N/A   Clear
10:15 PM 17.6 °F 12.3 °F 15.1 °F 90% 30.52 in 10.0 mi SSW 3.5 mph - N/A   Clear
10:35 PM 17.4 °F 12.1 °F 14.9 °F 90% 30.52 in 10.0 mi SSW 3.5 mph - N/A   Clear
10:55 PM 17.4 °F - 14.9 °F 90% 30.52 in 10.0 mi Calm Calm - N/A   Clear
11:15 PM 17.1 °F 11.7 °F 14.7 °F 91% 30.52 in 10.0 mi SSW 3.5 mph - N/A   Clear
11:35 PM 17.8 °F - 14.9 °F 88% 30.53 in 10.0 mi Calm Calm - N/A   Clear
11:55 PM 17.2 °F - 14.5 °F 89% 30.52 in 10.0 mi Calm Calm - N/A   Clear